Regional Weather Roundup
Issued by NWS

Home | Current Version | Previous Version | Graphics & Text | Print | Product List | Glossary On
Versions: 1 2 3 4 5 6 7 8 9 10 11 12 13 14 15 16 17 18 19 20 21 22 23 24 25 26 27 28 29 30 31 32 33 34 35 36 37 38 39 40 41 42 43 44 45 46 47 48 49 50
000
ASUS43 KDMX 021108
RWRIA

WEATHER ROUNDUP FOR IOWA
NATIONAL WEATHER SERVICE DES MOINES IA
600 AM CDT MON MAY 02 2016

NOTE: "FAIR" INDICATES FEW OR NO CLOUDS BELOW 12,000 FEET WITH NO
SIGNIFICANT WEATHER AND/OR OBSTRUCTIONS TO VISIBILITY.

* - THESE STATIONS ARE NOT NWS STATIONS...THUS NOT UNDER NWS
QUALITY CONTROL.  THEY ALSO DO NOT REPORT WEATHER SUCH
AS PRECIPITATION OR FOG.

IAZ001>003-012>014-020>022-031>034-043>046-021200-
   NORTHWEST IOWA

CITY           SKY/WX    TMP DP  RH WIND       PRES   REMARKS
CARROLL *      PTCLDY    39  39 100 CALM      30.12S
CHEROKEE *     CLEAR     32  32 100 CALM      30.13S FOG
DENISON *      MOCLDY    43 N/A N/A N5        30.11S
LE MARS *      FOG       34  34 100 CALM      30.15S VSB 1
ORANGE CITY *  CLEAR     37  34  87 NW5       30.13S WCI  34
SHELDON *      CLEAR     34  34 100 CALM      30.12S
SIOUX CITY     PTCLDY    37  34  89 NW9       30.14S WCI  30
SPENCER        CLEAR     34  32  92 NW7       30.12S WCI  28
STORM LAKE *   PTCLDY    43  37  81 NW9       30.13R
$$

IAZ055>058-069>071-079>083-090>094-021200-
   SOUTHWEST IOWA

CITY           SKY/WX    TMP DP  RH WIND       PRES   REMARKS
ATLANTIC *     PTCLDY    39  39 100 CALM      30.12S
AUDUBON *      CLEAR     36  34  93 CALM      30.13S
CLARINDA *       N/A    N/A N/A N/A MISG        N/A
COUNCIL BLFS * MOCLDY    45  43  93 N6        30.12S
CRESTON *      CLOUDY    45  45 100 N6        30.11S
HARLAN  *      CLEAR     39  39 100 CALM      30.16S
LAMONI         CLOUDY    46  44  93 N7        30.09S
RED OAK *      CLOUDY   N/A N/A N/A N3        30.12S
SHENANDOAH *   CLOUDY    46  46 100 CALM      30.13S
$$

IAZ047>049-059>061-072>074-084-021200-
   CENTRAL IOWA

CITY           SKY/WX    TMP DP  RH WIND       PRES   REMARKS
AMES           PTCLDY    39  38  96 CALM      30.11S FOG
ANKENY *       FOG       39  39 100 CALM      30.11S VSB 1/4
BOONE *        CLOUDY    41  41 100 NW5       30.10S
CHARITON *     CLOUDY    46  46 100 N7        30.10R
DES MOINES     PTCLDY    42  40  92 CALM      30.11S FOG
GRINNELL*      CLEAR     39  39 100 NW5       30.11R
KNOXVILLE *    CLEAR     41  41 100 N6        30.08F FOG
MARSHALLTOWN   FOG       37  36  96 CALM      30.10S VSB 3/4
NEWTON *       CLEAR     39  39 100 N7        30.10S WCI  34
PELLA *        CLEAR     41  39  93 N5        30.11S FOG
$$

IAZ004>006-015-016-023>025-035-036-021200-
   NORTH CENTRAL IOWA

CITY           SKY/WX    TMP DP  RH WIND       PRES   REMARKS
ALGONA *       CLEAR     41  37  87 NW5       30.11S
CLARION *      FOG       36  36 100 CALM      30.11S VSB 1/4
ESTHERVILLE    CLEAR     37  35  92 NW7       30.11S WCI  32
FORT DODGE *   CLOUDY    37  34  87 CALM      30.12S
MASON CITY     CLEAR     36  34  92 CALM      30.11F FOG
FOREST CITY *  CLOUDY    34  34 100 CALM      30.10S
WEBSTER CITY * MOCLDY    41  41 100 W6        30.10S FOG
IOWA FALLS *   FOG       39  37  93 NW3       30.12S VSB 1/2
$$

IAZ007>011-017>019-026>030-037>042-050>054-066-021200-
   NORTHEAST IOWA

CITY           SKY/WX    TMP DP  RH WIND       PRES   REMARKS
CEDAR RAPIDS   CLOUDY    45  44  97 N7        30.08S
CHARLES CITY * CLOUDY    43  43 100 N5        30.11R
CLINTON *      CLOUDY    47  46  97 N8        30.08S
DECORAH *      CLEAR     39  39 100 CALM      30.10S
DUBUQUE        CLOUDY    45  42  89 N5        30.09R
MONTICELLO *   CLOUDY    45  43  93 N3        30.09S
OELWEIN *      CLEAR     39  39 100 NE5       30.11S
WATERLOO       FOG       35  34  96 CALM      30.10S VSB 1/4
$$

IAZ064-065-067-068-078-021200-
   EAST CENTRAL IOWA

CITY           SKY/WX    TMP DP  RH WIND       PRES   REMARKS
DAVENPORT      CLOUDY    47  45  93 NE8       30.08R
IOWA CITY      CLOUDY    46  42  86 N7        30.10S
MT. PLEASANT * CLOUDY    48  48 100 N6        30.08R
MUSCATINE *    CLOUDY    48  45  87 NE7       30.09R
QUAD CITIES    CLOUDY    49  45  86 NE6       30.07R
$$

IAZ062-063-075>077-085>089-095>099-021200-
   SOUTHEAST IOWA

CITY           SKY/WX    TMP DP  RH WIND       PRES   REMARKS
BURLINGTON     CLOUDY    48  47  96 N8        30.06S
FAIRFIELD *    PTCLDY    45  43  93 N7        30.08S
FORT MADISON * CLOUDY    46  46 100 N5        30.07F
KEOKUK *       CLOUDY    48  48 100 N6        30.06S
OSKALOOSA *      N/A     41  39  93 N8        30.09S
OTTUMWA        PTCLDY    42  41  96 N8        30.09R
WASHINGTON *   MOCLDY    45  45 100 N8        30.10R
$$

ABBREVIATIONS USED IN REMARKS
   TC - TEMPERATURES IN CELSIUS
  WCI - WIND CHILL INDEX
   HX - HEAT INDEX
  VSB - VISIBILITY
$$




USA.gov is the U.S. government's official web portal to all federal, state and local government web resources and services.